"Pseudo-MPEC" for Queqiao-2 = NORAD 39276 = 2024-051A
Created 2024 Mar 23 22:59:04 UT using Find_Orb
Click here for an explanation of pseudo-MPECs
You can click here for a pseudo-MPEC for the Queqiao-2 Tiandu sub-satellite or here for a pseudo-MPEC for the Queqiao-2 booster.
You can find TLEs for all three known Queqiao objects (look for '24051a.tle' = spacecraft, '24051b.tle' = booster, and 'qq2c.tle' = either Tiandu-1 or Tiandu-2, we don't know which one.) You can also get customized ephemerides for any of these objects.
Astrometry:
A115fck* C2024 03 21*Gk*6IYG?5hVb,N=lKjEn1FR-SZ5^'iOeYxfP2gIG/%0.'bYL-(7T08
A115fck C2024 03 21-ZDao4EPWNkL(A8Ij:XI$NW+6k1xsH+SAstrometryGF5kSl?o]FT08
A115fck C2024 03 21QX8R2LVa)wtMOmP[!w[#fM02F%JFV(_0+7CWn*:0[571\AF7r'o^T08
A115fck C2024 03 21.%qU+A!;#`LbRo?FSZ04I!y+CyC;[8iqKxFTrInD2Fm+FF?04h24T08
A115fck C2024 03 21N/gKJH=$l4)jkOxcSma?mTJnD$4fjnSj?$l\\^KfOo'%N@AvtFjNT05
A115fck C2024 03 21jH0ms%FcD$U[an,'CHP$'SS!tOutsIdA?uh85Ux91YT%?5AfZH?3T05
A115fck C2024 03 21Imxh5!,1A[S3[hi4\Tm633L5TlIWe7ZXS3Credacted;4-./haC$T05
A115fck C2024 03 21*2lf@_VSclickL\B[Nk89(LL6_L3N3A7V\44fF,@?=sly;M(-?AiT05
A115fck C2024 03 21Em%_t8ga3$=p9Q69here1wZQ:SCfor9oJAexplanationVC=EBd%T05
QQ-2B KB2024 03 22.15271 11 39 22.073-01 46 15.35 13.6 RZ H36
QQ-2B KB2024 03 22.15412 11 39 21.571-01 46 07.07 13.6 RZ H36
QQ-2B KB2024 03 22.15545 11 39 21.096-01 45 59.26 13.6 RZ H36
QQ-2B KB2024 03 22.17271 11 39 14.198-01 44 20.08 13.6 RZ H36
QQ-2B KB2024 03 22.17377 11 39 13.721-01 44 14.03 13.5 RZ H36
QQ-2B KB2024 03 22.17484 11 39 13.255-01 44 07.91 13.6 RZ H36
QQ-2B C2024 03 22.17755 11 40 08.43 -01 36 43.3 13.7 GU V16
QQ-2B C2024 03 22.18030 11 40 07.34 -01 36 28.0 13.7 GU V16
QQ-2B C2024 03 22.18331 11 40 06.10 -01 36 11.4 13.7 GU V16
QQ-2B C2024 03 22.18631 11 40 04.82 -01 35 54.5 13.7 GU V16
QQ-2B C2024 03 22.18933 11 40 03.46 -01 35 38.0 13.7 GU V16
QQ-2B C2024 03 22.27991 11 39 17.90 -01 35 35.6 13.9 MPML 718
QQ-2B C2024 03 22.28065 11 39 17.49 -01 35 31.4 13.8 MPML 718
QQ-2B C2024 03 22.28178 11 39 16.87 -01 35 24.9 13.8 MPML 718
QQ-2B C2024 03 22.28234 11 39 16.55 -01 35 21.6 13.8 MPML 718
QQ-2B CK240322:2144051 176.87900 -00.80535 14.2 GV J69
QQ-2B CK240322:2149193 176.87502 -00.80054 14.2 GV J69
QQ-2B CK240322:2155299 176.87018 -00.79495 14.3 GV J69
QQ-2B CK240322:2201191 176.86524 -00.78958 14.2 GV J69
QQ-2B CK240322:2207074 176.86029 -00.78424 14.2 GV J69
QQ-2B CK240322:2212560 176.85503 -00.77903 14.2 GV J69
Station data:
(718) Tooele (N40.641406 W112.295800) US/Utah. Observer P. Wiggins. 0.35-m
f/5.5 Schmidt-Cassegrain + CCD.
(H36) Sandlot Observatory, Scranton (N38.797700 W95.706554) US/Kansas.
Observer G. Hug. 0.56-m reflector + CCD.
(J69) North Observatory, Clanfield (N50.939017 W1.019656) UK/England.
Observer D. Briggs. 0.41-m f/4.5 Newtonian reflector + CCD.
(T05) ATLAS-HKO, Haleakala (N20.707582 W156.257008) US/Hawaii. Observers
L. Denneau, A. Heinze, H. Weiland, J. Tonry, H. Flewelling, A.
Fitzsimmons, D. Young, B. Stalder. Measurers L. Denneau, A. Heinze, J.
Tonry. 0.5-m f/2.0 Schmidt + CCD.
(T08) ATLAS-MLO, Mauna Loa (N19.536150 W155.576050) US/Hawaii. Observers
L. Denneau, A. Heinze, H. Weiland, J. Tonry, H. Flewelling, A.
Fitzsimmons, D. Young, B. Stalder. Measurers L. Denneau, A. Heinze, J.
Tonry. 0.5-m f/2.0 Schmidt + CCD.
(V16) Dark Sky New Mexico, Animas (N31.946942 W108.897120) US/New Mexico.
Observer D. Crowson. 0.30-m f/8.0 Ritchey-Chrétien + CCD.
Orbital elements: Queqiao-2 = NORAD 39276 = 2024-051A
Perigee 2024 Mar 20.036121 +/- 9.52e-5 TT = 0:52:00.8 (JD 2460389.536121)
Epoch 2024 Mar 20.0 TT = JDT 2460389.5 Find_Orb
M 358.810529638 +/- 0.0033 (J2000 equator)
n 32.930012330 +/- 0.00936 Peri. 185.574898 +/- 0.0021
a208069.7333 +/- 39.4 Node 177.108381 +/- 0.00012
e 0.96826573 +/- 1.97e-6 Incl. 21.976478 +/- 0.0006
P 10.9321d H 27.14 G 0.15 U 9.6
q 6602.940417 +/- 1.62 Q 409536.5263 +/- 77.3
From 30 observations 2024 Mar. 21-22 (36.2 hr); mean residual 0".185
Orbital elements: Queqiao-2 = NORAD 39276 = 2024-051A (lunar arrival)
Perilune 2024 Mar 24.706104 +/- 1.76e-5 TT = 16:56:47.3 (JD 2460394.206104)
Epoch 2024 Mar 24.7 TT = JDT 2460394.2 Find_Orb
q 1946.940768 +/- 8.95 (J2000 ecliptic)
H 27.14 G 0.15 Peri. 125.754612 +/- 0.11
Node 274.263313 +/- 0.13
e 1.29051576 +/- 0.00136 Incl. 107.325122 +/- 0.53
From 30 observations 2024 Mar. 21-22 (36.2 hr); mean residual 0".185
